SIA874 RCTP-WSSS

Flight info

Callsign SIA874
Flight time 3h 46m
Altitude 40000
Route TINHO1C TINHO B591 TACLE Q12 KABAM N892 MIGUG/K0893F400 N892 MELAS/N0482F400 N892 MABAL MABAL2B
Aircraft A359/H-SDE2E3GHIJ3J4J5LM1ORWXY/LB1D1

Departure

Time 2026-05-07 07:27
Airport Taiwan Taoyuan International Airport (RCTP)

Arrival

Time 2026-05-07 11:14
Airport Singapore Changi Airport (WSSS)
Time Latitude Longitude Altitude Speed Heading
2026-05-07 07:12 25.07771 121.22847 92 ft 0 kts 140°
2026-05-07 07:19 25.07776 121.22842 95 ft 2 kts 140°
2026-05-07 07:20 25.07789 121.22831 94 ft 2 kts 141°
2026-05-07 07:20 25.07802 121.22820 93 ft 2 kts 143°
2026-05-07 07:20 25.07815 121.22809 92 ft 2 kts 147°
2026-05-07 07:20 25.07830 121.22801 94 ft 2 kts 158°
2026-05-07 07:21 25.07846 121.22798 94 ft 2 kts 203°
2026-05-07 07:21 25.07854 121.22804 94 ft 1 kts 226°
2026-05-07 07:21 25.07855 121.22805 94 ft 0 kts 228°
2026-05-07 07:23 25.07851 121.22800 94 ft 3 kts 227°
2026-05-07 07:23 25.07828 121.22772 97 ft 7 kts 228°
2026-05-07 07:23 25.07789 121.22722 96 ft 11 kts 229°
2026-05-07 07:24 25.07734 121.22652 96 ft 13 kts 229°
2026-05-07 07:24 25.07667 121.22566 98 ft 16 kts 229°
2026-05-07 07:24 25.07586 121.22464 96 ft 19 kts 229°
2026-05-07 07:24 25.07494 121.22347 98 ft 21 kts 229°
2026-05-07 07:25 25.07311 121.22115 101 ft 20 kts 229°
2026-05-07 07:25 25.07226 121.22006 100 ft 18 kts 229°
2026-05-07 07:25 25.07140 121.21898 100 ft 18 kts 230°
2026-05-07 07:26 25.07127 121.21785 100 ft 16 kts 305°
2026-05-07 07:26 25.07205 121.21704 101 ft 16 kts 320°
2026-05-07 07:26 25.07294 121.21637 102 ft 9 kts 347°
2026-05-07 07:26 25.07337 121.21664 102 ft 9 kts 41°
2026-05-07 07:27 25.07396 121.21739 99 ft 24 kts 49°
2026-05-07 07:27 25.07698 121.22121 100 ft 105 kts 49°
2026-05-07 07:27 25.08338 121.22922 99 ft 171 kts 46°
2026-05-07 07:27 25.09149 121.23954 740 ft 180 kts 45°
2026-05-07 07:28 25.09976 121.25010 1558 ft 187 kts 48°
2026-05-07 07:28 25.10904 121.26191 1920 ft 221 kts 47°
2026-05-07 07:28 25.11986 121.27570 2252 ft 253 kts 48°
2026-05-07 07:28 25.13176 121.29096 2839 ft 269 kts 49°
2026-05-07 07:29 25.14404 121.30690 3677 ft 276 kts 49°
2026-05-07 07:29 25.15657 121.32319 4558 ft 280 kts 49°
2026-05-07 07:29 25.16928 121.33972 5450 ft 285 kts 49°
2026-05-07 07:29 25.18230 121.35664 6269 ft 292 kts 50°
2026-05-07 07:30 25.19558 121.37393 7116 ft 298 kts 50°
2026-05-07 07:30 25.20910 121.39150 8061 ft 301 kts 49°
2026-05-07 07:30 25.22214 121.40979 8989 ft 306 kts 56°
2026-05-07 07:30 25.23170 121.43094 9927 ft 311 kts 72°
2026-05-07 07:31 25.23583 121.45474 10559 ft 326 kts 88°
2026-05-07 07:31 25.23311 121.48034 10897 ft 347 kts 108°
2026-05-07 07:31 25.22253 121.50466 11420 ft 356 kts 128°
2026-05-07 07:31 25.20535 121.52435 12104 ft 358 kts 146°
2026-05-07 07:32 25.18401 121.53880 12849 ft 364 kts 155°
2026-05-07 07:32 25.16142 121.55197 13644 ft 371 kts 155°
2026-05-07 07:32 25.13837 121.56533 14408 ft 377 kts 156°
2026-05-07 07:32 25.11546 121.57874 15214 ft 379 kts 155°
2026-05-07 07:33 25.09219 121.59245 16044 ft 380 kts 155°
2026-05-07 07:33 25.06884 121.60626 16836 ft 382 kts 155°
2026-05-07 07:33 25.04536 121.62016 17540 ft 385 kts 155°
2026-05-07 07:33 25.02168 121.63418 18220 ft 388 kts 155°
2026-05-07 07:34 24.99778 121.64833 18804 ft 392 kts 155°
2026-05-07 07:34 24.97360 121.66265 19362 ft 397 kts 155°
2026-05-07 07:34 24.94915 121.67712 19960 ft 401 kts 155°
2026-05-07 07:34 24.92452 121.69171 20577 ft 403 kts 155°
2026-05-07 07:35 24.89970 121.70639 21211 ft 406 kts 155°
2026-05-07 07:35 24.87469 121.72118 21782 ft 411 kts 155°
2026-05-07 07:35 24.84939 121.73613 22383 ft 415 kts 155°
2026-05-07 07:35 24.82380 121.75125 22982 ft 420 kts 155°
2026-05-07 07:36 24.79796 121.76652 23560 ft 424 kts 155°
2026-05-07 07:36 24.77182 121.78195 24060 ft 428 kts 155°
2026-05-07 07:36 24.74545 121.79751 24564 ft 432 kts 155°
2026-05-07 07:36 24.71881 121.81322 25033 ft 439 kts 155°
2026-05-07 07:37 24.69170 121.82920 25515 ft 444 kts 155°
2026-05-07 07:37 24.66439 121.84529 26076 ft 447 kts 155°
2026-05-07 07:37 24.63683 121.86153 26629 ft 451 kts 155°
2026-05-07 07:37 24.60907 121.87787 27167 ft 455 kts 155°
2026-05-07 07:38 24.58108 121.89434 27701 ft 459 kts 155°
2026-05-07 07:38 24.55280 121.91097 28223 ft 463 kts 155°
2026-05-07 07:38 24.52427 121.92774 28737 ft 467 kts 155°
2026-05-07 07:38 24.49552 121.94463 29244 ft 471 kts 155°
2026-05-07 07:39 24.46655 121.96164 29740 ft 475 kts 155°
2026-05-07 07:39 24.43730 121.97881 30186 ft 478 kts 155°
2026-05-07 07:39 24.40760 121.99546 30597 ft 480 kts 159°
2026-05-07 07:39 24.37619 122.00765 31016 ft 478 kts 169°
2026-05-07 07:40 24.34344 122.01333 31436 ft 476 kts 180°
2026-05-07 07:40 24.31048 122.01223 31828 ft 474 kts 191°
2026-05-07 07:40 24.27823 122.00496 32211 ft 474 kts 198°
2026-05-07 07:40 24.24640 121.99533 32606 ft 476 kts 199°
2026-05-07 07:41 24.21463 121.98486 33001 ft 478 kts 200°
2026-05-07 07:41 24.18274 121.97404 33378 ft 481 kts 200°
2026-05-07 07:41 24.15108 121.96329 33741 ft 484 kts 200°
2026-05-07 07:41 24.11883 121.95245 34069 ft 486 kts 200°
2026-05-07 07:42 24.08633 121.94165 34349 ft 489 kts 200°
2026-05-07 07:42 24.05359 121.93090 34568 ft 494 kts 199°
2026-05-07 07:42 24.02061 121.92015 34880 ft 495 kts 200°
2026-05-07 07:42 23.98761 121.90943 35300 ft 494 kts 200°
2026-05-07 07:43 23.95469 121.89878 35704 ft 493 kts 200°
2026-05-07 07:43 23.92183 121.88815 36081 ft 493 kts 200°
2026-05-07 07:43 23.88898 121.87751 36447 ft 493 kts 200°
2026-05-07 07:43 23.85613 121.86688 36808 ft 492 kts 200°
2026-05-07 07:44 23.82328 121.85626 37149 ft 492 kts 200°
2026-05-07 07:44 23.79042 121.84562 37497 ft 492 kts 200°
2026-05-07 07:44 23.75759 121.83495 37814 ft 493 kts 200°
2026-05-07 07:44 23.72467 121.82425 37916 ft 493 kts 201°
2026-05-07 07:45 23.69188 121.81360 37919 ft 492 kts 201°
2026-05-07 07:45 23.62634 121.79235 37910 ft 492 kts 201°
2026-05-07 07:46 23.56049 121.77122 37903 ft 494 kts 200°
2026-05-07 07:46 23.49455 121.74990 37908 ft 495 kts 200°
2026-05-07 07:47 23.42858 121.72849 37914 ft 495 kts 200°
2026-05-07 07:47 23.36255 121.70720 37908 ft 495 kts 200°
2026-05-07 07:48 23.29648 121.68590 37904 ft 495 kts 200°
2026-05-07 07:48 23.23035 121.66461 37906 ft 496 kts 200°
2026-05-07 07:49 23.16422 121.64336 37903 ft 496 kts 200°
2026-05-07 07:49 23.09822 121.62219 37903 ft 496 kts 200°
2026-05-07 07:50 23.03198 121.60083 37903 ft 496 kts 200°
2026-05-07 07:50 22.96991 121.56984 37898 ft 488 kts 216°
2026-05-07 07:51 22.91376 121.52924 37897 ft 487 kts 218°
2026-05-07 07:51 22.85835 121.48687 37898 ft 486 kts 219°
2026-05-07 07:52 22.80329 121.44469 37893 ft 486 kts 219°
2026-05-07 07:52 22.74764 121.40243 37903 ft 487 kts 218°
2026-05-07 07:53 22.69252 121.36035 37898 ft 486 kts 220°
2026-05-07 07:53 22.64007 121.31417 37899 ft 484 kts 224°
2026-05-07 07:54 22.58864 121.26683 37900 ft 485 kts 224°
2026-05-07 07:54 22.53675 121.22001 37900 ft 485 kts 223°
2026-05-07 07:55 22.48480 121.17390 37900 ft 486 kts 223°
2026-05-07 07:55 22.44117 121.13540 37899 ft 486 kts 223°
2026-05-07 07:56 22.38018 121.08164 37900 ft 486 kts 223°
2026-05-07 07:56 22.33658 121.04320 37902 ft 486 kts 223°
2026-05-07 07:57 22.28415 120.99701 37906 ft 485 kts 223°
2026-05-07 07:57 22.23191 120.95104 37904 ft 485 kts 223°
2026-05-07 07:58 22.17927 120.90473 37903 ft 494 kts 223°
2026-05-07 07:58 22.12533 120.85728 37906 ft 506 kts 222°
2026-05-07 07:59 22.07045 120.80914 37907 ft 509 kts 222°
2026-05-07 07:59 22.01543 120.76096 37909 ft 509 kts 222°
2026-05-07 08:00 21.96046 120.71285 37909 ft 509 kts 222°
2026-05-07 08:00 21.90548 120.66476 37911 ft 509 kts 222°
2026-05-07 08:01 21.85051 120.61673 37910 ft 509 kts 222°
2026-05-07 08:01 21.79558 120.56878 37908 ft 508 kts 222°
2026-05-07 08:02 21.74064 120.52097 37908 ft 508 kts 222°
2026-05-07 08:02 21.68575 120.47315 37908 ft 508 kts 222°
2026-05-07 08:03 21.63084 120.42535 37899 ft 508 kts 222°
2026-05-07 08:03 21.57594 120.37764 37909 ft 507 kts 222°
2026-05-07 08:04 21.52105 120.32999 37906 ft 508 kts 222°
2026-05-07 08:04 21.46608 120.28232 37906 ft 508 kts 222°
2026-05-07 08:05 21.41112 120.23471 37908 ft 508 kts 222°
2026-05-07 08:05 21.35653 120.18747 37906 ft 507 kts 222°
2026-05-07 08:06 21.30164 120.14002 37906 ft 506 kts 222°
2026-05-07 08:06 21.24676 120.09262 37906 ft 507 kts 222°
2026-05-07 08:07 21.19180 120.04520 37901 ft 507 kts 222°
2026-05-07 08:07 21.13679 119.99778 37894 ft 507 kts 222°
2026-05-07 08:08 21.08185 119.95047 37905 ft 506 kts 222°
2026-05-07 08:08 21.02694 119.90324 37905 ft 506 kts 222°
2026-05-07 08:09 20.97493 119.85286 37898 ft 503 kts 227°
2026-05-07 08:09 20.92573 119.80036 37898 ft 503 kts 229°
2026-05-07 08:10 20.87654 119.74707 37897 ft 503 kts 229°
2026-05-07 08:10 20.82737 119.69389 37901 ft 503 kts 229°
2026-05-07 08:11 20.77811 119.64080 37891 ft 503 kts 228°
2026-05-07 08:11 20.72879 119.58777 37903 ft 503 kts 228°
2026-05-07 08:12 20.67946 119.53478 37898 ft 503 kts 228°
2026-05-07 08:12 20.63012 119.48182 37898 ft 503 kts 228°
2026-05-07 08:13 20.58074 119.42888 37897 ft 503 kts 228°
2026-05-07 08:13 20.53137 119.37600 37898 ft 503 kts 228°
2026-05-07 08:14 20.48198 119.32314 37900 ft 503 kts 228°
2026-05-07 08:14 20.43257 119.27031 37899 ft 503 kts 228°
2026-05-07 08:15 20.38312 119.21749 37894 ft 503 kts 228°
2026-05-07 08:15 20.33370 119.16476 37897 ft 503 kts 228°
2026-05-07 08:16 20.28423 119.11203 37899 ft 503 kts 228°
2026-05-07 08:16 20.23477 119.05935 37897 ft 503 kts 228°
2026-05-07 08:17 20.18525 119.00665 37894 ft 503 kts 228°
2026-05-07 08:17 20.13574 118.95403 37889 ft 503 kts 227°
2026-05-07 08:18 20.08619 118.90141 37889 ft 503 kts 227°
2026-05-07 08:18 20.03662 118.84881 37892 ft 503 kts 227°
2026-05-07 08:19 19.98735 118.79659 37888 ft 503 kts 227°
2026-05-07 08:19 19.93772 118.74404 37889 ft 503 kts 227°
2026-05-07 08:20 19.88809 118.69152 37883 ft 504 kts 227°
2026-05-07 08:20 19.83842 118.63902 37885 ft 504 kts 227°
2026-05-07 08:21 19.78869 118.58650 37881 ft 504 kts 227°
2026-05-07 08:21 19.73897 118.53405 37886 ft 504 kts 227°
2026-05-07 08:22 19.68921 118.48160 37880 ft 504 kts 227°
2026-05-07 08:22 19.63948 118.42923 37879 ft 504 kts 227°
2026-05-07 08:23 19.58971 118.37687 37885 ft 504 kts 227°
2026-05-07 08:23 19.53993 118.32454 37886 ft 504 kts 227°
2026-05-07 08:24 19.49014 118.27225 37882 ft 504 kts 227°
2026-05-07 08:24 19.44029 118.21995 37880 ft 504 kts 227°
2026-05-07 08:25 19.39047 118.16773 37877 ft 504 kts 227°
2026-05-07 08:25 19.34055 118.11544 37878 ft 505 kts 227°
2026-05-07 08:26 19.26557 118.03703 37878 ft 505 kts 227°
2026-05-07 08:26 19.21563 117.98484 37877 ft 505 kts 227°
2026-05-07 08:27 19.16561 117.93261 37878 ft 505 kts 227°
2026-05-07 08:27 19.11561 117.88045 37878 ft 506 kts 227°
2026-05-07 08:28 19.06548 117.82822 37875 ft 506 kts 227°
2026-05-07 08:28 19.01533 117.77605 37876 ft 506 kts 226°
2026-05-07 08:29 18.96512 117.72386 37874 ft 506 kts 227°
2026-05-07 08:29 18.91497 117.67171 37873 ft 506 kts 227°
2026-05-07 08:30 18.86476 117.61955 37876 ft 507 kts 226°
2026-05-07 08:30 18.81481 117.56773 37875 ft 507 kts 226°
2026-05-07 08:31 18.76445 117.51554 37873 ft 507 kts 226°
2026-05-07 08:31 18.71412 117.46343 37876 ft 507 kts 226°
2026-05-07 08:32 18.66372 117.41128 37873 ft 507 kts 226°
2026-05-07 08:32 18.61334 117.35921 37873 ft 508 kts 226°
2026-05-07 08:33 18.56288 117.30710 37873 ft 508 kts 226°
2026-05-07 08:33 18.51239 117.25500 37873 ft 508 kts 226°
2026-05-07 08:34 18.46187 117.20292 37870 ft 508 kts 226°
2026-05-07 08:34 18.41138 117.15091 37868 ft 508 kts 226°
2026-05-07 08:35 18.36083 117.09889 37866 ft 508 kts 226°
2026-05-07 08:35 18.31018 117.04680 37867 ft 509 kts 226°
2026-05-07 08:36 18.25949 116.99472 37867 ft 509 kts 226°
2026-05-07 08:36 18.20876 116.94265 37870 ft 509 kts 226°
2026-05-07 08:37 18.15804 116.89064 37869 ft 509 kts 226°
2026-05-07 08:37 18.10730 116.83864 37865 ft 509 kts 226°
2026-05-07 08:38 18.05650 116.78663 37864 ft 510 kts 226°
2026-05-07 08:38 18.00596 116.73493 37870 ft 510 kts 226°
2026-05-07 08:39 17.95508 116.68292 37870 ft 511 kts 226°
2026-05-07 08:39 17.90419 116.63094 37867 ft 510 kts 226°
2026-05-07 08:40 17.85322 116.57894 37864 ft 511 kts 226°
2026-05-07 08:40 17.80226 116.52698 37865 ft 511 kts 226°
2026-05-07 08:41 17.75115 116.47498 37870 ft 512 kts 226°
2026-05-07 08:41 17.70003 116.42295 37864 ft 512 kts 226°
2026-05-07 08:42 17.64879 116.37081 37863 ft 512 kts 226°
2026-05-07 08:42 17.59792 116.31910 37864 ft 512 kts 226°
2026-05-07 08:43 17.54674 116.26714 37861 ft 512 kts 225°
2026-05-07 08:43 17.49565 116.21533 37858 ft 513 kts 226°
2026-05-07 08:44 17.44427 116.16325 37877 ft 513 kts 225°
2026-05-07 08:44 17.39293 116.11126 37870 ft 513 kts 225°
2026-05-07 08:45 17.34188 116.05961 37856 ft 513 kts 225°
2026-05-07 08:45 17.29063 116.00779 37853 ft 513 kts 225°
2026-05-07 08:46 17.24780 115.96452 37871 ft 514 kts 225°
2026-05-07 08:46 17.18795 115.90412 37864 ft 514 kts 225°
2026-05-07 08:47 17.14509 115.86089 37846 ft 514 kts 225°
2026-05-07 08:47 17.09349 115.80888 37862 ft 514 kts 225°
2026-05-07 08:48 17.04192 115.75695 37863 ft 514 kts 225°
2026-05-07 08:48 16.99073 115.70544 37864 ft 514 kts 225°
2026-05-07 08:49 16.93908 115.65351 37856 ft 514 kts 225°
2026-05-07 08:49 16.88757 115.60176 37856 ft 514 kts 225°
2026-05-07 08:50 16.83627 115.55026 37840 ft 514 kts 225°
2026-05-07 08:50 16.78460 115.49844 37857 ft 514 kts 225°
2026-05-07 08:51 16.73333 115.44705 37858 ft 514 kts 225°
2026-05-07 08:51 16.68166 115.39531 37858 ft 514 kts 225°
2026-05-07 08:52 16.62987 115.34348 37855 ft 515 kts 225°
2026-05-07 08:52 16.57849 115.29211 37857 ft 514 kts 225°
2026-05-07 08:53 16.52666 115.24033 37858 ft 514 kts 225°
2026-05-07 08:53 16.47524 115.18899 37858 ft 514 kts 225°
2026-05-07 08:54 16.42350 115.13739 37858 ft 515 kts 225°
2026-05-07 08:54 16.37192 115.08597 37857 ft 515 kts 225°
2026-05-07 08:55 16.32000 115.03426 37856 ft 515 kts 225°
2026-05-07 08:55 16.26832 114.98283 37853 ft 515 kts 225°
2026-05-07 08:56 16.21633 114.93113 37855 ft 515 kts 225°
2026-05-07 08:56 16.16436 114.87948 37851 ft 516 kts 225°
2026-05-07 08:57 16.11267 114.82816 37850 ft 516 kts 225°
2026-05-07 08:57 16.06056 114.77646 37849 ft 516 kts 225°
2026-05-07 08:58 16.00852 114.72486 37850 ft 516 kts 225°
2026-05-07 08:58 15.95685 114.67368 37850 ft 516 kts 225°
2026-05-07 08:59 15.90484 114.62219 37849 ft 516 kts 225°
2026-05-07 08:59 15.85279 114.57071 37850 ft 516 kts 225°
2026-05-07 09:00 15.80075 114.51927 37852 ft 517 kts 225°
2026-05-07 09:00 15.74870 114.46786 37850 ft 517 kts 225°
2026-05-07 09:01 15.69662 114.41646 37850 ft 517 kts 225°
2026-05-07 09:01 15.64451 114.36507 37849 ft 517 kts 225°
2026-05-07 09:02 15.59235 114.31366 37842 ft 518 kts 225°
2026-05-07 09:02 15.54014 114.26225 37844 ft 518 kts 225°
2026-05-07 09:03 15.48788 114.21083 37842 ft 518 kts 225°
2026-05-07 09:03 15.43563 114.15944 37842 ft 518 kts 225°
2026-05-07 09:04 15.38336 114.10808 37842 ft 518 kts 225°
2026-05-07 09:04 15.33109 114.05676 37837 ft 518 kts 225°
2026-05-07 09:05 15.27832 114.00583 37841 ft 520 kts 221°
2026-05-07 09:05 15.22060 113.96058 37844 ft 520 kts 217°
2026-05-07 09:06 15.16174 113.91682 37842 ft 521 kts 217°
2026-05-07 09:06 15.10271 113.87335 37839 ft 521 kts 217°
2026-05-07 09:07 15.04374 113.82981 37839 ft 521 kts 217°
2026-05-07 09:07 14.98524 113.78653 37839 ft 520 kts 217°
2026-05-07 09:08 14.92632 113.74293 37864 ft 521 kts 217°
2026-05-07 09:08 14.86733 113.69931 37839 ft 521 kts 217°
2026-05-07 09:09 14.80837 113.65575 37837 ft 521 kts 217°
2026-05-07 09:09 14.74935 113.61217 37837 ft 521 kts 217°
2026-05-07 09:10 14.69037 113.56866 37840 ft 521 kts 217°
2026-05-07 09:10 14.63136 113.52516 37840 ft 520 kts 217°
2026-05-07 09:11 14.57243 113.48174 37840 ft 520 kts 217°
2026-05-07 09:11 14.51347 113.43833 37837 ft 520 kts 217°
2026-05-07 09:12 14.45451 113.39494 37837 ft 521 kts 217°
2026-05-07 09:12 14.39560 113.35137 37833 ft 521 kts 217°
2026-05-07 09:13 14.33712 113.30812 37835 ft 521 kts 217°
2026-05-07 09:13 14.27784 113.26437 37834 ft 520 kts 217°
2026-05-07 09:14 14.21933 113.22123 37832 ft 520 kts 217°
2026-05-07 09:14 14.16041 113.17782 37831 ft 521 kts 217°
2026-05-07 09:15 14.10153 113.13447 37831 ft 520 kts 217°
2026-05-07 09:15 14.04260 113.09111 37832 ft 520 kts 217°
2026-05-07 09:16 13.98367 113.04779 37833 ft 521 kts 217°
2026-05-07 09:16 13.92465 113.00451 37832 ft 521 kts 217°
2026-05-07 09:17 13.86565 112.96127 37829 ft 521 kts 217°
2026-05-07 09:17 13.80661 112.91803 37831 ft 521 kts 217°
2026-05-07 09:18 13.74755 112.87481 37830 ft 521 kts 217°
2026-05-07 09:18 13.68855 112.83166 37828 ft 521 kts 217°
2026-05-07 09:19 13.62948 112.78849 37829 ft 521 kts 217°
2026-05-07 09:19 13.57044 112.74537 37829 ft 521 kts 217°
2026-05-07 09:20 13.51140 112.70227 37830 ft 521 kts 217°
2026-05-07 09:20 13.45236 112.65919 37828 ft 521 kts 217°
2026-05-07 09:21 13.39329 112.61613 37827 ft 521 kts 217°
2026-05-07 09:21 13.33420 112.57307 37826 ft 521 kts 217°
2026-05-07 09:22 13.27505 112.53001 37828 ft 521 kts 217°
2026-05-07 09:22 13.21591 112.48696 37827 ft 521 kts 217°
2026-05-07 09:23 13.15682 112.44399 37830 ft 521 kts 217°
2026-05-07 09:23 13.09816 112.40135 37828 ft 520 kts 217°
2026-05-07 09:24 13.03912 112.35847 37825 ft 520 kts 217°
2026-05-07 09:24 12.98011 112.31563 37826 ft 520 kts 217°
2026-05-07 09:25 12.92112 112.27282 37823 ft 520 kts 217°
2026-05-07 09:25 12.86204 112.22998 37821 ft 520 kts 217°
2026-05-07 09:26 12.80304 112.18723 37820 ft 519 kts 217°
2026-05-07 09:26 12.74407 112.14451 37820 ft 519 kts 217°
2026-05-07 09:27 12.68514 112.10186 37824 ft 518 kts 217°
2026-05-07 09:28 12.59700 112.03810 37823 ft 517 kts 217°
2026-05-07 09:28 12.53826 111.99565 37818 ft 517 kts 217°
2026-05-07 09:29 12.48003 111.95358 37818 ft 516 kts 217°
2026-05-07 09:29 12.42141 111.91126 37818 ft 515 kts 217°
2026-05-07 09:30 12.36282 111.86898 37821 ft 515 kts 217°
2026-05-07 09:30 12.30431 111.82663 37821 ft 515 kts 217°
2026-05-07 09:31 12.24594 111.78410 37815 ft 515 kts 217°
2026-05-07 09:31 12.18763 111.74166 37818 ft 514 kts 217°
2026-05-07 09:32 12.12939 111.69937 37817 ft 513 kts 217°
2026-05-07 09:32 12.07119 111.65715 37815 ft 513 kts 217°
2026-05-07 09:33 12.01298 111.61494 37811 ft 513 kts 217°
2026-05-07 09:33 11.95474 111.57274 37812 ft 513 kts 217°
2026-05-07 09:34 11.90595 111.53740 37813 ft 513 kts 217°
2026-05-07 09:34 11.84774 111.49526 37815 ft 513 kts 217°
2026-05-07 09:35 11.78953 111.45314 37815 ft 513 kts 217°
2026-05-07 09:35 11.73131 111.41104 37810 ft 513 kts 217°
2026-05-07 09:36 11.67311 111.36897 37810 ft 513 kts 217°
2026-05-07 09:36 11.61528 111.32719 37810 ft 513 kts 217°
2026-05-07 09:37 11.55706 111.28516 37811 ft 513 kts 217°
2026-05-07 09:37 11.49879 111.24310 37807 ft 513 kts 217°
2026-05-07 09:38 11.44047 111.20104 37808 ft 513 kts 217°
2026-05-07 09:38 11.38214 111.15899 37810 ft 513 kts 217°
2026-05-07 09:39 11.32379 111.11695 37807 ft 513 kts 217°
2026-05-07 09:39 11.26534 111.07507 37810 ft 514 kts 217°
2026-05-07 09:40 11.20668 111.03349 37807 ft 514 kts 217°
2026-05-07 09:40 11.14794 110.99190 37807 ft 514 kts 217°
2026-05-07 09:41 11.08925 110.95031 37807 ft 514 kts 217°
2026-05-07 09:41 11.03053 110.90869 37807 ft 514 kts 217°
2026-05-07 09:42 10.97179 110.86707 37804 ft 514 kts 217°
2026-05-07 09:42 10.91309 110.82551 37804 ft 514 kts 217°
2026-05-07 09:43 10.85396 110.78446 37806 ft 515 kts 214°
2026-05-07 09:43 10.79452 110.74374 37804 ft 515 kts 214°
2026-05-07 09:44 10.73541 110.70250 37802 ft 515 kts 215°
2026-05-07 09:44 10.67652 110.66094 37804 ft 515 kts 215°
2026-05-07 09:45 10.61768 110.61932 37804 ft 515 kts 215°
2026-05-07 09:45 10.55880 110.57771 37801 ft 515 kts 215°
2026-05-07 09:46 10.49991 110.53614 37804 ft 515 kts 215°
2026-05-07 09:46 10.44101 110.49460 37799 ft 515 kts 215°
2026-05-07 09:47 10.38212 110.45308 37801 ft 516 kts 215°
2026-05-07 09:47 10.32313 110.41151 37801 ft 516 kts 214°
2026-05-07 09:48 10.26415 110.36997 37799 ft 516 kts 214°
2026-05-07 09:48 10.20523 110.32851 37799 ft 514 kts 214°
2026-05-07 09:49 10.14648 110.28706 37799 ft 514 kts 215°
2026-05-07 09:49 10.08782 110.24551 37799 ft 514 kts 215°
2026-05-07 09:50 10.02915 110.20400 37798 ft 514 kts 214°
2026-05-07 09:50 9.97083 110.16279 37799 ft 514 kts 214°
2026-05-07 09:51 9.91210 110.12134 37798 ft 514 kts 214°
2026-05-07 09:51 9.85344 110.07996 37799 ft 513 kts 214°
2026-05-07 09:52 9.79483 110.03863 37796 ft 513 kts 214°
2026-05-07 09:52 9.73625 109.99733 37796 ft 513 kts 214°
2026-05-07 09:53 9.67765 109.95603 37797 ft 513 kts 214°
2026-05-07 09:53 9.61901 109.91473 37796 ft 513 kts 214°
2026-05-07 09:54 9.56036 109.87344 37795 ft 513 kts 214°
2026-05-07 09:54 9.50177 109.83225 37796 ft 513 kts 214°
2026-05-07 09:55 9.44317 109.79110 37793 ft 513 kts 214°
2026-05-07 09:55 9.38448 109.74984 37793 ft 513 kts 214°
2026-05-07 09:56 9.32578 109.70861 37797 ft 514 kts 214°
2026-05-07 09:56 9.26743 109.66766 37797 ft 514 kts 214°
2026-05-07 09:57 9.20878 109.62652 37795 ft 511 kts 214°
2026-05-07 09:57 9.15035 109.58556 37796 ft 511 kts 214°
2026-05-07 09:58 9.09194 109.54462 37795 ft 511 kts 214°
2026-05-07 09:58 9.03353 109.50369 37793 ft 511 kts 214°
2026-05-07 09:59 8.97510 109.46277 37793 ft 511 kts 214°
2026-05-07 09:59 8.91668 109.42187 37794 ft 511 kts 214°
2026-05-07 10:00 8.85806 109.38084 37794 ft 513 kts 214°
2026-05-07 10:00 8.79925 109.33974 37796 ft 514 kts 213°
2026-05-07 10:01 8.74034 109.29877 37795 ft 514 kts 214°
2026-05-07 10:01 8.68137 109.25781 37792 ft 514 kts 214°
2026-05-07 10:02 8.62242 109.21686 37788 ft 514 kts 213°
2026-05-07 10:02 8.56342 109.17587 37789 ft 516 kts 213°
2026-05-07 10:03 8.50396 109.13459 37787 ft 520 kts 213°
2026-05-07 10:03 8.44428 109.09317 37791 ft 520 kts 213°
2026-05-07 10:04 8.38466 109.05180 37787 ft 520 kts 213°
2026-05-07 10:04 8.32501 109.01043 37787 ft 520 kts 213°
2026-05-07 10:05 8.26530 108.96903 37790 ft 520 kts 213°
2026-05-07 10:05 8.20616 108.92805 37791 ft 518 kts 213°
2026-05-07 10:06 8.14644 108.88667 37791 ft 517 kts 213°
2026-05-07 10:06 8.08754 108.84588 37791 ft 517 kts 213°
2026-05-07 10:07 8.02827 108.80485 37789 ft 517 kts 213°
2026-05-07 10:07 7.96895 108.76380 37788 ft 517 kts 213°
2026-05-07 10:08 7.90949 108.72265 37790 ft 519 kts 213°
2026-05-07 10:08 7.85003 108.68153 37790 ft 518 kts 213°
2026-05-07 10:09 7.79068 108.64051 37791 ft 517 kts 213°
2026-05-07 10:09 7.73137 108.59951 37789 ft 517 kts 213°
2026-05-07 10:10 7.67208 108.55856 37790 ft 517 kts 213°
2026-05-07 10:10 7.61278 108.51760 37788 ft 517 kts 213°
2026-05-07 10:11 7.55345 108.47665 37788 ft 517 kts 213°
2026-05-07 10:11 7.49415 108.43572 37789 ft 517 kts 213°
2026-05-07 10:12 7.43476 108.39475 37786 ft 518 kts 213°
2026-05-07 10:12 7.37529 108.35373 37785 ft 518 kts 213°
2026-05-07 10:13 7.31571 108.31265 37788 ft 518 kts 213°
2026-05-07 10:13 7.25620 108.27164 37789 ft 519 kts 213°
2026-05-07 10:14 7.19660 108.23058 37788 ft 519 kts 213°
2026-05-07 10:14 7.13682 108.18941 37787 ft 521 kts 213°
2026-05-07 10:15 7.07694 108.14819 37787 ft 522 kts 213°
2026-05-07 10:15 7.01719 108.10668 37787 ft 522 kts 213°
2026-05-07 10:16 6.95755 108.06496 37789 ft 522 kts 213°
2026-05-07 10:16 6.89827 108.02356 37864 ft 523 kts 213°
2026-05-07 10:16 6.86840 108.00274 38012 ft 522 kts 213°
2026-05-07 10:17 6.83859 107.98196 38193 ft 519 kts 213°
2026-05-07 10:17 6.80904 107.96136 38458 ft 515 kts 213°
2026-05-07 10:17 6.77959 107.94085 38584 ft 515 kts 213°
2026-05-07 10:18 6.72063 107.89979 38747 ft 515 kts 213°
2026-05-07 10:18 6.66169 107.85876 38903 ft 515 kts 213°
2026-05-07 10:18 6.63225 107.83827 39021 ft 514 kts 213°
2026-05-07 10:19 6.60283 107.81780 39094 ft 515 kts 213°
2026-05-07 10:19 6.54403 107.77688 39287 ft 513 kts 213°
2026-05-07 10:20 6.49527 107.74296 39435 ft 512 kts 212°
2026-05-07 10:20 6.45640 107.71591 39744 ft 504 kts 212°
2026-05-07 10:20 6.43732 107.70264 39780 ft 503 kts 212°
2026-05-07 10:21 6.37985 107.66269 39790 ft 502 kts 212°
2026-05-07 10:21 6.32240 107.62277 39789 ft 502 kts 212°
2026-05-07 10:22 6.26489 107.58282 39789 ft 502 kts 212°
2026-05-07 10:22 6.20741 107.54291 39792 ft 502 kts 212°
2026-05-07 10:23 6.14991 107.50298 39787 ft 503 kts 212°
2026-05-07 10:23 6.09226 107.46297 39788 ft 505 kts 212°
2026-05-07 10:24 6.03439 107.42281 39786 ft 505 kts 212°
2026-05-07 10:24 5.97656 107.38270 39786 ft 505 kts 212°
2026-05-07 10:25 5.91867 107.34255 39789 ft 506 kts 212°
2026-05-07 10:25 5.86080 107.30242 39795 ft 506 kts 212°
2026-05-07 10:26 5.80290 107.26229 39790 ft 506 kts 212°
2026-05-07 10:26 5.74479 107.22202 39787 ft 509 kts 212°
2026-05-07 10:27 5.68685 107.18188 39788 ft 509 kts 212°
2026-05-07 10:27 5.62849 107.14146 39790 ft 509 kts 212°
2026-05-07 10:28 5.57014 107.10105 39791 ft 509 kts 212°
2026-05-07 10:28 5.51180 107.06066 39787 ft 509 kts 212°
2026-05-07 10:29 5.45352 107.02033 39791 ft 508 kts 212°
2026-05-07 10:29 5.39532 106.98006 39789 ft 508 kts 212°
2026-05-07 10:30 5.30791 106.91959 39794 ft 509 kts 212°
2026-05-07 10:30 5.24966 106.87931 39789 ft 509 kts 212°
2026-05-07 10:31 5.19142 106.83905 39788 ft 509 kts 212°
2026-05-07 10:31 5.13314 106.79877 39790 ft 509 kts 212°
2026-05-07 10:32 5.07483 106.75847 39788 ft 510 kts 212°
2026-05-07 10:32 5.01631 106.71804 39787 ft 511 kts 212°
2026-05-07 10:33 4.95777 106.67761 39790 ft 511 kts 212°
2026-05-07 10:33 4.89968 106.63749 39790 ft 510 kts 212°
2026-05-07 10:34 4.84130 106.59718 39794 ft 510 kts 212°
2026-05-07 10:34 4.78287 106.55684 39793 ft 509 kts 212°
2026-05-07 10:35 4.72446 106.51653 39791 ft 509 kts 212°
2026-05-07 10:35 4.66611 106.47627 39790 ft 509 kts 212°
2026-05-07 10:36 4.60777 106.43602 39790 ft 509 kts 212°
2026-05-07 10:36 4.54940 106.39576 39790 ft 509 kts 212°
2026-05-07 10:37 4.49104 106.35552 39793 ft 509 kts 212°
2026-05-07 10:37 4.43263 106.31524 39793 ft 510 kts 212°
2026-05-07 10:38 4.37407 106.27488 39795 ft 511 kts 212°
2026-05-07 10:38 4.31560 106.23456 39792 ft 510 kts 212°
2026-05-07 10:39 4.26383 106.18601 39791 ft 513 kts 227°
2026-05-07 10:39 4.21809 106.13131 39791 ft 512 kts 229°
2026-05-07 10:40 4.17366 106.07583 39808 ft 509 kts 232°
2026-05-07 10:40 4.13031 106.01954 39790 ft 511 kts 231°
2026-05-07 10:41 4.08599 105.96399 39788 ft 510 kts 231°
2026-05-07 10:41 4.04157 105.90928 39791 ft 509 kts 230°
2026-05-07 10:42 3.99678 105.85428 39791 ft 509 kts 230°
2026-05-07 10:42 3.95206 105.79931 39795 ft 509 kts 231°
2026-05-07 10:43 3.90734 105.74428 39788 ft 509 kts 231°
2026-05-07 10:43 3.86265 105.68928 39790 ft 509 kts 231°
2026-05-07 10:44 3.81792 105.63425 39786 ft 509 kts 231°
2026-05-07 10:44 3.77355 105.57967 39786 ft 509 kts 231°
2026-05-07 10:45 3.72888 105.52474 39791 ft 509 kts 231°
2026-05-07 10:45 3.68432 105.46975 39792 ft 509 kts 231°
2026-05-07 10:46 3.63973 105.41469 39790 ft 509 kts 231°
2026-05-07 10:46 3.59514 105.35966 39790 ft 509 kts 231°
2026-05-07 10:47 3.55053 105.30463 39788 ft 509 kts 231°
2026-05-07 10:47 3.50591 105.24960 39788 ft 509 kts 230°
2026-05-07 10:48 3.46130 105.19463 39793 ft 509 kts 230°
2026-05-07 10:48 3.41667 105.13962 39793 ft 509 kts 231°
2026-05-07 10:49 3.37207 105.08462 39793 ft 509 kts 230°
2026-05-07 10:49 3.32749 105.02966 39793 ft 509 kts 230°
2026-05-07 10:50 3.28286 104.97467 39793 ft 508 kts 230°
2026-05-07 10:50 3.23827 104.91974 39794 ft 508 kts 230°
2026-05-07 10:51 3.19381 104.86497 39682 ft 504 kts 230°
2026-05-07 10:51 3.17202 104.83813 39450 ft 503 kts 230°
2026-05-07 10:51 3.14998 104.81098 39208 ft 503 kts 230°
2026-05-07 10:52 3.12791 104.78381 38987 ft 503 kts 230°
2026-05-07 10:52 3.10583 104.75662 38765 ft 504 kts 230°
2026-05-07 10:52 3.08371 104.72938 38534 ft 504 kts 230°
2026-05-07 10:52 3.06157 104.70213 38210 ft 505 kts 230°
2026-05-07 10:53 3.03943 104.67488 37551 ft 505 kts 230°
2026-05-07 10:53 3.01643 104.64816 36788 ft 506 kts 226°
2026-05-07 10:53 2.99216 104.62260 36034 ft 508 kts 225°
2026-05-07 10:53 2.96764 104.59699 35260 ft 511 kts 225°
2026-05-07 10:54 2.94309 104.57115 34452 ft 514 kts 226°
2026-05-07 10:54 2.91842 104.54501 33519 ft 519 kts 226°
2026-05-07 10:54 2.89359 104.51860 32529 ft 523 kts 226°
2026-05-07 10:54 2.86862 104.49198 31578 ft 526 kts 226°
2026-05-07 10:55 2.84354 104.46522 30907 ft 529 kts 226°
2026-05-07 10:55 2.81839 104.43836 30196 ft 530 kts 226°
2026-05-07 10:55 2.79317 104.41142 29418 ft 531 kts 226°
2026-05-07 10:55 2.76791 104.38443 28669 ft 528 kts 226°
2026-05-07 10:56 2.74292 104.35773 27968 ft 525 kts 226°
2026-05-07 10:56 2.71812 104.33123 27247 ft 519 kts 226°
2026-05-07 10:56 2.69351 104.30494 26550 ft 515 kts 226°
2026-05-07 10:56 2.66908 104.27885 25849 ft 512 kts 226°
2026-05-07 10:57 2.64488 104.25300 25133 ft 508 kts 226°
2026-05-07 10:57 2.62085 104.22733 24414 ft 503 kts 226°
2026-05-07 10:57 2.59705 104.20191 23691 ft 498 kts 226°
2026-05-07 10:57 2.57347 104.17673 22905 ft 492 kts 226°
2026-05-07 10:58 2.55027 104.15196 22141 ft 486 kts 226°
2026-05-07 10:58 2.52678 104.12799 21414 ft 479 kts 220°
2026-05-07 10:58 2.49929 104.10974 20687 ft 472 kts 204°
2026-05-07 10:58 2.46840 104.09996 20087 ft 464 kts 187°
2026-05-07 10:59 2.43647 104.09874 19508 ft 457 kts 175°
2026-05-07 10:59 2.40491 104.10091 18921 ft 453 kts 174°
2026-05-07 10:59 2.37356 104.10264 18332 ft 449 kts 175°
2026-05-07 10:59 2.34288 104.10367 17711 ft 446 kts 176°
2026-05-07 11:00 2.31199 104.10426 17107 ft 442 kts 177°
2026-05-07 11:00 2.28136 104.10458 16534 ft 438 kts 178°
2026-05-07 11:00 2.25099 104.10476 16038 ft 435 kts 178°
2026-05-07 11:00 2.22078 104.10487 15451 ft 432 kts 178°
2026-05-07 11:01 2.19094 104.10493 14846 ft 427 kts 178°
2026-05-07 11:01 2.16141 104.10496 14371 ft 423 kts 178°
2026-05-07 11:01 2.13209 104.10498 14025 ft 418 kts 178°
2026-05-07 11:01 2.10317 104.10499 13266 ft 414 kts 178°
2026-05-07 11:02 2.07441 104.10500 12911 ft 411 kts 178°
2026-05-07 11:02 2.04609 104.10500 12237 ft 404 kts 178°
2026-05-07 11:02 2.01876 104.10499 11994 ft 376 kts 178°
2026-05-07 11:02 1.99377 104.10496 11672 ft 344 kts 178°
2026-05-07 11:03 1.97068 104.10494 11284 ft 324 kts 178°
2026-05-07 11:03 1.94847 104.10506 10979 ft 315 kts 178°
2026-05-07 11:03 1.92673 104.10520 10590 ft 310 kts 178°
2026-05-07 11:03 1.90531 104.10532 10175 ft 306 kts 178°
2026-05-07 11:04 1.88407 104.10544 9743 ft 303 kts 178°
2026-05-07 11:04 1.86316 104.10502 9143 ft 297 kts 183°
2026-05-07 11:04 1.84270 104.10290 8255 ft 295 kts 185°
2026-05-07 11:04 1.82249 104.10091 7550 ft 288 kts 184°
2026-05-07 11:05 1.80243 104.09942 7144 ft 288 kts 182°
2026-05-07 11:05 1.78254 104.09826 6769 ft 284 kts 182°
2026-05-07 11:05 1.76286 104.09731 6402 ft 283 kts 181°
2026-05-07 11:05 1.74327 104.09605 6000 ft 282 kts 186°
2026-05-07 11:06 1.72398 104.09290 5557 ft 280 kts 189°
2026-05-07 11:06 1.70494 104.08922 5114 ft 278 kts 190°
2026-05-07 11:06 1.68611 104.08548 4689 ft 275 kts 190°
2026-05-07 11:06 1.66733 104.08183 4215 ft 273 kts 190°
2026-05-07 11:07 1.64877 104.07825 3798 ft 271 kts 190°
2026-05-07 11:07 1.63031 104.07476 3361 ft 268 kts 190°
2026-05-07 11:07 1.61817 104.07248 3155 ft 267 kts 190°
2026-05-07 11:07 1.59999 104.06906 3040 ft 266 kts 190°
2026-05-07 11:08 1.57691 104.06473 3040 ft 232 kts 190°
2026-05-07 11:08 1.56205 104.06192 3031 ft 204 kts 190°
2026-05-07 11:08 1.54877 104.05940 3033 ft 193 kts 190°
2026-05-07 11:08 1.53579 104.05687 3043 ft 187 kts 193°
2026-05-07 11:09 1.52773 104.05427 3031 ft 174 kts 200°
2026-05-07 11:09 1.51704 104.04984 2939 ft 161 kts 201°
2026-05-07 11:09 1.50679 104.04558 2732 ft 159 kts 201°
2026-05-07 11:09 1.49340 104.03983 2424 ft 156 kts 201°
2026-05-07 11:10 1.48679 104.03700 2293 ft 149 kts 201°
2026-05-07 11:10 1.47753 104.03302 2107 ft 142 kts 202°
2026-05-07 11:10 1.46877 104.02924 1918 ft 132 kts 202°
2026-05-07 11:10 1.46047 104.02566 1759 ft 129 kts 202°
2026-05-07 11:11 1.45218 104.02208 1604 ft 129 kts 201°
2026-05-07 11:11 1.44395 104.01852 1417 ft 129 kts 201°
2026-05-07 11:11 1.43576 104.01499 1262 ft 128 kts 200°
2026-05-07 11:11 1.42765 104.01149 1098 ft 129 kts 201°
2026-05-07 11:12 1.41945 104.00794 937 ft 128 kts 200°
2026-05-07 11:12 1.41130 104.00442 771 ft 127 kts 201°
2026-05-07 11:12 1.40322 104.00092 620 ft 126 kts 200°
2026-05-07 11:12 1.39509 103.99738 453 ft 128 kts 203°
2026-05-07 11:13 1.38708 103.99359 276 ft 128 kts 203°
2026-05-07 11:13 1.37889 103.99005 126 ft 129 kts 200°
2026-05-07 11:13 1.37067 103.98662 35 ft 123 kts 202°
2026-05-07 11:13 1.36414 103.98387 36 ft 84 kts 202°
2026-05-07 11:14 1.36013 103.98217 34 ft 52 kts 202°
2026-05-07 11:14 1.35719 103.98114 36 ft 34 kts 186°
2026-05-07 11:14 1.35583 103.98117 37 ft 0 kts 174°
2026-05-07 11:14 1.35535 103.98150 35 ft 12 kts 125°
2026-05-07 11:15 1.35582 103.98230 33 ft 18 kts 27°
2026-05-07 11:15 1.35714 103.98284 33 ft 21 kts 22°
2026-05-07 11:15 1.35862 103.98347 33 ft 25 kts 23°
2026-05-07 11:15 1.36025 103.98416 33 ft 24 kts 22°
2026-05-07 11:16 1.36186 103.98484 33 ft 25 kts 23°
2026-05-07 11:16 1.36329 103.98544 33 ft 17 kts 22°
2026-05-07 11:16 1.36450 103.98595 33 ft 21 kts 23°
2026-05-07 11:16 1.36595 103.98657 33 ft 25 kts 23°
2026-05-07 11:17 1.36755 103.98724 32 ft 17 kts 23°
2026-05-07 11:17 1.36776 103.98733 33 ft 6 kts 23°
2026-05-07 11:17 1.36825 103.98764 32 ft 10 kts 47°
2026-05-07 11:17 1.36821 103.98840 32 ft 14 kts 112°
2026-05-07 11:18 1.36778 103.98944 31 ft 18 kts 112°
2026-05-07 11:18 1.36723 103.99073 31 ft 22 kts 113°
2026-05-07 11:18 1.36658 103.99225 31 ft 26 kts 113°
2026-05-07 11:18 1.36588 103.99386 31 ft 23 kts 113°
2026-05-07 11:19 1.36527 103.99528 31 ft 18 kts 113°
2026-05-07 11:19 1.36491 103.99601 31 ft 7 kts 118°
2026-05-07 11:19 1.36476 103.99611 31 ft 0 kts 149°
2026-05-07 11:19 1.36471 103.99615 31 ft 1 kts 139°
2026-05-07 11:20 1.36467 103.99616 31 ft 0 kts 161°
2026-05-07 11:20 1.36464 103.99615 31 ft 1 kts 178°
2026-05-07 11:20 1.36430 103.99602 31 ft 12 kts 200°
2026-05-07 11:20 1.36349 103.99536 31 ft 17 kts 236°
2026-05-07 11:21 1.36275 103.99442 31 ft 16 kts 221°
2026-05-07 11:21 1.36174 103.99392 31 ft 18 kts 202°
2026-05-07 11:21 1.36053 103.99341 31 ft 20 kts 203°
2026-05-07 11:21 1.35944 103.99294 31 ft 15 kts 204°
2026-05-07 11:22 1.35882 103.99267 31 ft 4 kts 204°
2026-05-07 11:22 1.35846 103.99244 31 ft 4 kts 236°
2026-05-07 11:22 1.35848 103.99219 31 ft 6 kts 278°
2026-05-07 11:22 1.35865 103.99172 31 ft 0 kts 292°